Weather History for Red Wing, MN

Change the Weather History Date:

Friday, October 19, 2012

  Actual Average Record
Temperature  
Mean Temperature 42 °F -  
Max Temperature 51 °F 55 °F 84 °F (2000)
Min Temperature 32 °F 37 °F 24 °F (1996)
Degree Days  
Heating Degree Days 23    
Moisture  
Dew Point 41 °F    
Average Humidity 89    
Maximum Humidity 100    
Minimum Humidity 62    
Precipitation  
Precipitation 0.10 in - - ()
Sea Level Pressure  
Sea Level Pressure 29.58 in    
Wind  
Wind Speed 1 mph (NNE)    
Max Wind Speed 9 mph    
Max Gust Speed -    
Visibility 8 miles    
Events Rain    
Averages and records for this station are not official NWS values.
T = Trace of Precipitation, MM = Missing Value Source: NWS Daily Summary

Daily Weather History Graph

Daily Weather History Graph

Search for Another Location

Airport:

Trip Planner

Search our weather history database for the weather conditions in past years. The results will help you decide how hot, cold, wet, or windy it might be!

Date:

Astronomy

Oct. 19, 2012 Rise Set
Actual Time 7:30 AM CDT 6:17 PM CDT
Civil Twilight 7:01 AM CDT 6:47 PM CDT
Nautical Twilight 6:27 AM CDT 7:21 PM CDT
Astronomical Twilight 5:53 AM CDT 7:54 PM CDT
Moon 12:22 PM CDT 9:48 PM CDT
Length of Visible Light 11h 46m
Length of Day
10h 46m
Waxing Crescent, 24% of the Moon is Illuminated
Oct 19
Waxing Crescent
Oct 21
First Quarter
Oct 29
Full
Nov 6
Last Quarter
Nov 13
New

Hourly Weather History & Observations

Time (CDT) Temp. Windchill Dew Point Humidity Pressure Visibility Wind Dir Wind Speed Gust Speed Precip Events Conditions
12:15 AM 39.2 °F - 37.4 °F 93% 29.40 in 10.0 mi Calm Calm - N/A   Scattered Clouds
12:35 AM 41.0 °F - 39.2 °F 93% 29.41 in 10.0 mi Calm Calm - N/A   Mostly Cloudy
12:56 AM 41.0 °F - 39.2 °F 93% 29.41 in 10.0 mi Calm Calm - N/A   Overcast
1:15 AM 41.0 °F 39.0 °F 39.2 °F 93% 29.42 in 10.0 mi North 3.5 mph - N/A   Mostly Cloudy
1:35 AM 42.8 °F - 41.0 °F 93% 29.42 in 10.0 mi Calm Calm - N/A   Overcast
1:55 AM 42.8 °F - 41.0 °F 93% 29.43 in 10.0 mi Calm Calm - N/A   Overcast
2:15 AM 44.6 °F - 41.0 °F 87% 29.44 in 10.0 mi Calm Calm - N/A Rain Light Rain
2:35 AM 42.8 °F - 42.8 °F 100% 29.44 in 7.0 mi Calm Calm - N/A   Drizzle
2:55 AM 42.8 °F - 42.8 °F 100% 29.45 in 7.0 mi Calm Calm - 0.01 in Rain Light Rain
3:15 AM 42.8 °F - 42.8 °F 100% 29.45 in 5.0 mi Calm Calm - 0.01 in Rain Light Rain
3:35 AM 44.6 °F - 42.8 °F 93% 29.46 in 7.0 mi Calm Calm - 0.02 in Rain Rain
3:55 AM 42.8 °F - 42.8 °F 100% 29.47 in 7.0 mi Calm Calm - 0.03 in Rain Rain
4:15 AM 42.8 °F - 42.8 °F 100% 29.46 in 7.0 mi Calm Calm - N/A   Overcast
4:35 AM 42.8 °F - 42.8 °F 100% 29.47 in 10.0 mi Calm Calm - N/A   Light Drizzle
4:55 AM 44.6 °F - 42.8 °F 93% 29.48 in 7.0 mi Calm Calm - N/A   Drizzle
5:15 AM 44.6 °F - 42.8 °F 93% 29.48 in 7.0 mi Calm Calm - N/A Rain Light Rain
5:35 AM 44.6 °F - 42.8 °F 93% 29.49 in 5.0 mi Calm Calm - N/A Rain Rain
5:55 AM 42.8 °F - 42.8 °F 100% 29.49 in 5.0 mi Calm Calm - N/A Rain Rain
6:15 AM 42.8 °F - 42.8 °F 100% 29.50 in 5.0 mi Calm Calm - N/A   Light Drizzle
6:35 AM 42.8 °F - 42.8 °F 100% 29.50 in 4.0 mi Calm Calm - N/A   Light Drizzle
6:55 AM 42.8 °F - 42.8 °F 100% 29.50 in 5.0 mi Calm Calm - N/A Rain Light Rain
7:15 AM 42.8 °F - 42.8 °F 100% 29.52 in 4.0 mi Calm Calm - N/A Rain Light Rain
7:36 AM 44.6 °F - 42.8 °F 93% 29.52 in 4.0 mi Calm Calm - N/A Rain Light Rain
7:55 AM 44.6 °F - 42.8 °F 93% 29.53 in 4.0 mi Calm Calm - 0.01 in Rain Light Rain
8:15 AM 44.6 °F - 42.8 °F 93% 29.54 in 2.5 mi Calm Calm - N/A Rain Rain
8:35 AM 44.6 °F - 42.8 °F 93% 29.54 in 2.5 mi Calm Calm - 0.01 in Rain Light Rain
8:55 AM 44.6 °F - 42.8 °F 93% 29.55 in 4.0 mi Calm Calm - 0.02 in Rain Light Rain
9:15 AM 44.6 °F - 42.8 °F 93% 29.55 in 4.0 mi Calm Calm - N/A Rain Light Rain
9:35 AM 44.6 °F - 44.6 °F 100% 29.55 in 4.0 mi Calm Calm - N/A Rain Light Rain
9:55 AM 44.6 °F - 44.6 °F 100% 29.55 in 4.0 mi Calm Calm - 0.01 in Rain Light Rain
10:15 AM 46.4 °F - 44.6 °F 93% 29.56 in 3.0 mi Calm Calm - N/A Rain Rain
10:35 AM 46.4 °F - 44.6 °F 93% 29.57 in 5.0 mi Calm Calm - N/A   Light Drizzle
10:55 AM 46.4 °F - 44.6 °F 93% 29.57 in 7.0 mi Calm Calm - N/A   Light Drizzle
11:15 AM 46.4 °F 44.3 °F 44.6 °F 93% 29.58 in 4.0 mi East 4.6 mph - 0.01 in Rain Heavy Rain
11:35 AM 46.4 °F - 44.6 °F 93% 29.59 in 4.0 mi Calm Calm - 0.01 in Rain Rain
11:55 AM 46.4 °F - 44.6 °F 93% 29.60 in 7.0 mi Calm Calm - 0.02 in   Drizzle
12:15 PM 48.2 °F - 44.6 °F 87% 29.60 in 5.0 mi East 3.5 mph - N/A Rain Light Rain
12:35 PM 48.2 °F - 44.6 °F 87% 29.60 in 10.0 mi Calm Calm - N/A   Light Drizzle
12:55 PM 48.2 °F - 44.6 °F 87% 29.60 in 10.0 mi ENE 3.5 mph - N/A   Overcast
1:15 PM 50.0 °F - 44.6 °F 82% 29.60 in 10.0 mi ENE 4.6 mph - N/A   Light Drizzle
1:35 PM 48.2 °F - 44.6 °F 87% 29.61 in 10.0 mi NNE 4.6 mph - N/A   Overcast
1:55 PM 48.2 °F - 44.6 °F 87% 29.61 in 10.0 mi NE 4.6 mph - N/A Rain Rain
2:15 PM 48.2 °F - 44.6 °F 87% 29.61 in 10.0 mi North 3.5 mph - N/A   Light Drizzle
2:35 PM 48.2 °F - 44.6 °F 87% 29.62 in 10.0 mi North 4.6 mph - N/A   Overcast
2:55 PM 48.2 °F - 44.6 °F 87% 29.62 in 10.0 mi Calm Calm - N/A   Overcast
3:15 PM 50.0 °F - 44.6 °F 82% 29.62 in 10.0 mi NNE 4.6 mph - N/A   Overcast
3:35 PM 51.8 °F - 42.8 °F 71% 29.63 in 7.0 mi NNE 9.2 mph - N/A   Overcast
3:55 PM 51.8 °F - 41.0 °F 67% 29.64 in 10.0 mi NE 4.6 mph - N/A   Overcast
4:15 PM 51.8 °F - 41.0 °F 67% 29.64 in 10.0 mi NNE 5.8 mph - N/A   Scattered Clouds
4:35 PM 51.8 °F - 39.2 °F 62% 29.64 in 10.0 mi NNE 6.9 mph - N/A   Clear
4:56 PM 50.0 °F - 37.4 °F 62% 29.65 in 10.0 mi Calm Calm - N/A   Clear
5:15 PM 51.8 °F - 39.2 °F 62% 29.65 in 10.0 mi Calm Calm - N/A   Clear
5:35 PM 51.8 °F - 39.2 °F 62% 29.66 in 10.0 mi Calm Calm - N/A   Mostly Cloudy
5:55 PM 50.0 °F - 37.4 °F 62% 29.66 in 10.0 mi NNE 4.6 mph - N/A   Mostly Cloudy
6:15 PM 48.2 °F - 37.4 °F 66% 29.67 in 10.0 mi North 3.5 mph - N/A   Clear
6:35 PM 46.4 °F - 37.4 °F 71% 29.68 in 10.0 mi Calm Calm - N/A   Clear
6:55 PM 44.6 °F 43.1 °F 37.4 °F 76% 29.69 in 10.0 mi NNW 3.5 mph - N/A   Clear
7:16 PM 42.8 °F 41.1 °F 37.4 °F 81% 29.69 in 10.0 mi North 3.5 mph - N/A   Clear
7:35 PM 42.8 °F 41.1 °F 35.6 °F 76% 29.69 in 10.0 mi North 3.5 mph - N/A   Clear
7:55 PM 39.2 °F 37.0 °F 35.6 °F 87% 29.70 in 10.0 mi NNW 3.5 mph - N/A   Clear
8:15 PM 39.2 °F - 35.6 °F 87% 29.71 in 10.0 mi Calm Calm - N/A   Clear
8:35 PM 37.4 °F 34.9 °F 35.6 °F 93% 29.71 in 10.0 mi North 3.5 mph - N/A   Clear
8:55 PM 35.6 °F - 33.8 °F 93% 29.72 in 10.0 mi Calm Calm - N/A   Clear
9:15 PM 35.6 °F - 33.8 °F 93% 29.73 in 10.0 mi Calm Calm - N/A   Clear
9:35 PM 35.6 °F - 33.8 °F 93% 29.73 in 10.0 mi Calm Calm - N/A   Clear
9:55 PM 35.6 °F 32.8 °F 33.8 °F 93% 29.74 in 10.0 mi NW 3.5 mph - N/A   Clear
10:15 PM 35.6 °F - 33.8 °F 93% 29.73 in 10.0 mi Calm Calm - N/A   Clear
10:35 PM 33.8 °F - 33.8 °F 100% 29.74 in 10.0 mi Calm Calm - N/A   Clear
10:55 PM 35.6 °F - 33.8 °F 93% 29.74 in 10.0 mi Calm Calm - N/A   Clear
11:15 PM 33.8 °F 30.8 °F 32.0 °F 93% 29.74 in 7.0 mi NW 3.5 mph - N/A   Clear
11:35 PM 33.8 °F - 32.0 °F 93% 29.73 in 7.0 mi Calm Calm - N/A   Clear
11:55 PM 32.0 °F - 30.2 °F 93% 29.73 in 7.0 mi Calm Calm - N/A   Clear